Stations météo

Publicité
Dijon, France (7280): Température de l'air & dewpoint: 18.03.2019 00:00:00 - 24.03.2019 00:00:00 (CET)Dijon, France (7280): Température de l'air 5cm: 18.03.2019 00:00:00 - 24.03.2019 00:00:00 (CET)Dijon, France (7280): Température de l'air -20cm & Température de l'air -100cm: 18.03.2019 00:00:00 - 24.03.2019 00:00:00 (CET)Dijon, France (7280): Vitesse du vent & gusts: 18.03.2019 00:00:00 - 24.03.2019 00:00:00 (CET)Dijon, France (7280): Direction du vent: 18.03.2019 00:00:00 - 24.03.2019 00:00:00 (CET)Dijon, France (7280): reduced air pressure: 18.03.2019 00:00:00 - 24.03.2019 00:00:00 (CET)Dijon, France (7280): visibility: 18.03.2019 00:00:00 - 24.03.2019 00:00:00 (CET)Dijon, France (7280): Ensoleillement: 18.03.2019 00:00:00 - 24.03.2019 00:00:00 (CET)Dijon, France (7280): Quantités de précipitations: 18.03.2019 00:00:00 - 24.03.2019 00:00:00 (CET)
Date & Time tt [°C] td [°C] tt 5cm [°C] tt -20cm [°C] tt -100cm [°C] ff [km/h] ff [knt] fx [km/h] fx [knt] dd ppp [hPa] vv [km] sd [min] rr [mm]
24.03.2019 00:00:00 7,2 3,6 5,4 9,6 8,8 14 7 17 9 NNW 1026,8 6 0 0,0
23.03.2019 23:00:00 8,1 3,5 6,1 9,6 8,8 14 8 19 10 NNW 1027,0 8 0 0,0
23.03.2019 22:00:00 9,0 3,4 6,9 9,5 8,8 13 7 22 12 NNW 1027,3 10 0 0,0
23.03.2019 21:00:00 10,9 3,9 6,8 9,5 8,8 14 7 22 12 NNW 1027,1 12 0 0,0
23.03.2019 20:00:00 13,7 2,9 7,6 9,4 8,8 8 4 13 7 NNE 1026,3 15 0 0,0
23.03.2019 19:00:00 15,2 3,0 8,6 9,2 8,8 7 4 14 8 NNE 1025,7 20 37 0,0
23.03.2019 18:00:00 17,2 4,5 16,2 9,0 8,8 10 6 16 9 ENE 1025,3 19 60 0,0
23.03.2019 17:00:00 19,5 3,6 21,0 8,8 8,8 8 4 18 10 NE 1025,1 19 60 0,0
23.03.2019 16:00:00 19,7 3,0 22,9 8,6 8,8 10 5 19 10 ENE 1025,4 18 60 0,0
23.03.2019 15:00:00 19,2 2,5 23,1 8,4 8,8 9 5 20 11 ENE 1025,8 18 60 0,0
23.03.2019 14:00:00 18,7 1,7 23,3 8,2 8,8 10 5 20 11 NNE 1026,6 18 60 0,0
23.03.2019 13:00:00 18,0 1,0 23,5 8,1 8,7 8 4 22 12 NE 1027,5 19 60 0,0
23.03.2019 12:00:00 17,1 4,1 21,8 8,1 8,8 6 3 13 7 NNE 1027,9 17 60 0,0
23.03.2019 11:00:00 15,0 3,2 18,3 8,1 8,8 3 2 10 5 NNW 1028,5 18 60 0,0
23.03.2019 10:00:00 12,0 2,7 10,9 8,2 8,8 6 3 13 7 NNE 1029,0 16 60 0,0
23.03.2019 09:00:00 9,2 3,0 5,2 8,3 8,8 4 2 5 3 NNE 1029,3 19 60 0,0
23.03.2019 08:00:00 5,3 1,4 -0,2 8,4 8,8 5 3 8 5 NNE 1029,6 19 60 0,0
23.03.2019 07:00:00 2,3 -0,6 -0,1 8,5 8,8 6 3 8 5 N 1029,6 17 9 0,0
23.03.2019 06:00:00 3,3 0,0 -1,3 8,6 8,8 7 4 9 5 NNW 1029,2 18 0 0,0
23.03.2019 05:00:00 1,1 -1,3 -1,2 8,6 8,8 4 2 6 3 N 1029,6 15 0 0,0
23.03.2019 04:00:00 3,4 0,8 0,5 8,7 8,8 6 3 10 5 NNE 1029,3 13 0 0,0
23.03.2019 03:00:00 4,0 1,2 0,9 8,8 8,8 4 2 7 4 NNE 1029,4 13 0 0,0
23.03.2019 02:00:00 6,4 1,1 2,0 8,8 8,8 8 4 13 7 N 1028,9 13 0 0,0
23.03.2019 01:00:00 6,9 1,8 1,3 8,9 8,8 7 4 10 6 N 1028,9 10 0 0,0
23.03.2019 00:00:00 6,4 1,9 1,2 8,9 8,8 6 4 9 5 NNW 1029,1 13 0 0,0
22.03.2019 23:00:00 7,5 2,8 2,4 8,9 8,8 8 4 11 6 NW 1028,9 15 0 0,0
22.03.2019 22:00:00 6,3 2,7 2,5 8,9 8,8 5 3 8 4 WNW 1029,0 13 0 0,0
22.03.2019 21:00:00 8,1 3,4 3,4 8,8 8,8 4 2 6 3 WNW 1028,7 14 0 0,0
22.03.2019 20:00:00 11,4 3,2 4,4 8,8 8,8 2 1 4 2 W 1028,2 20 0 0,0
22.03.2019 19:00:00 13,4 2,9 7,1 8,6 8,8 5 3 11 6 ESE 1027,7 20 37 0,0
22.03.2019 18:00:00 16,8 3,5 16,1 8,4 8,8 11 6 17 9 SE 1027,2 19 60 0,0
22.03.2019 17:00:00 18,2 3,6 19,7 8,2 8,8 12 6 19 10 SE 1027,0 18 60 0,0
22.03.2019 16:00:00 18,3 3,0 20,9 8,0 8,8 13 7 20 11 SE 1027,3 18 60 0,0
22.03.2019 15:00:00 18,7 2,1 22,0 7,8 8,8 6 3 15 8 S 1027,8 17 60 0,0
22.03.2019 14:00:00 17,4 1,4 21,6 7,7 8,8 9 5 18 10 SSE 1028,3 29 60 0,0
22.03.2019 13:00:00 16,2 1,1 19,9 7,6 8,8 11 6 20 11 S 1029,0 19 60 0,0
22.03.2019 12:00:00 14,1 2,3 18,0 7,6 8,8 8 4 16 9 SSE 1029,7 17 60 0,0
22.03.2019 11:00:00 11,4 1,1 17,0 7,6 8,8 7 4 12 7 SSE 1030,3 19 60 0,0
22.03.2019 10:00:00 9,6 1,7 8,0 7,7 8,8 2 1 6 4 ENE 1030,7 19 60 0,0
22.03.2019 09:00:00 6,3 0,8 1,8 7,8 8,8 2 1 5 3 NNE 1031,2 19 60 0,0
22.03.2019 08:00:00 2,5 -0,6 -3,3 7,9 8,8 0 0 5 3 N 1031,4 18 60 0,0
22.03.2019 07:00:00 -0,8 -3,2 -3,5 8,0 8,8 2 1 6 3 N 1031,5 17 8 0,0
22.03.2019 06:00:00 0,8 -2,4 -2,8 8,1 8,8 7 4 8 5 NW 1031,1 27 0 0,0
22.03.2019 05:00:00 1,2 -2,4 -1,2 8,2 8,8 5 3 10 6 NW 1030,8 26 0 0,0
22.03.2019 04:00:00 2,0 -1,6 -0,5 8,3 8,8 6 3 11 6 NW 1030,3 24 0 0,0
22.03.2019 03:00:00 3,0 -1,2 -0,4 8,3 8,8 9 5 13 7 NNW 1030,5 28 0 0,0
22.03.2019 02:00:00 3,4 -1,4 -0,3 8,4 8,8 8 4 13 7 NW 1030,5 28 0 0,0
22.03.2019 01:00:00 4,3 -0,7 1,8 8,5 8,8 10 5 14 8 NNW 1030,6 26 0 0,0
22.03.2019 00:00:00 4,8 -0,6 2,4 8,5 8,8 10 5 15 8 NW 1030,3 25 0 0,0
21.03.2019 23:00:00 5,6 -0,3 1,9 8,5 8,8 10 5 12 6 NNW 1030,3 28 0 0,0
21.03.2019 22:00:00 6,9 -0,1 2,2 8,5 8,8 9 5 12 7 NNW 1030,4 27 0 0,0
21.03.2019 21:00:00 9,1 0,0 3,4 8,5 8,8 8 4 12 6 N 1030,1 20 0 0,0
21.03.2019 20:00:00 9,4 -0,8 3,7 8,4 8,7 8 4 11 6 N 1029,8 49 0 0,0
21.03.2019 19:00:00 11,7 -1,8 5,5 8,3 8,8 5 3 14 8 NNE 1029,5 58 40 0,0
21.03.2019 18:00:00 14,4 -2,1 13,8 8,1 8,8 13 7 26 14 ENE 1029,1 60 60 0,0
21.03.2019 17:00:00 14,9 -3,0 16,6 8,0 8,8 9 5 26 14 ENE 1029,1 20 60 0,0
21.03.2019 16:00:00 14,7 -2,3 17,8 7,9 8,8 19 10 29 15 ENE 1029,3 20 60 0,0
21.03.2019 15:00:00 14,9 -3,0 18,0 7,7 8,8 17 9 35 19 ENE 1029,7 20 60 0,0
21.03.2019 14:00:00 14,4 -2,1 18,2 7,6 8,7 22 12 34 19 ENE 1030,0 45 60 0,0
21.03.2019 13:00:00 13,3 -3,5 16,7 7,5 8,8 21 11 37 20 NE 1030,7 42 60 0,0
21.03.2019 12:00:00 12,3 -3,9 15,7 7,5 8,8 22 12 40 21 NE 1031,1 20 60 0,0
21.03.2019 11:00:00 10,8 -1,6 13,6 7,6 8,8 22 12 37 20 NNE 1031,5 20 60 0,0
21.03.2019 10:00:00 9,0 -2,0 8,7 7,6 8,8 22 12 32 18 NNE 1031,8 20 60 0,0
21.03.2019 09:00:00 6,8 -1,9 4,6 7,7 8,8 22 12 29 16 NNE 1032,4 50 60 0,0
21.03.2019 08:00:00 4,5 -1,9 1,4 7,8 8,8 13 7 18 10 N 1032,9 45 54 0,0
21.03.2019 07:00:00 2,6 -2,7 1,3 7,9 8,8 14 7 18 10 N 1032,8 39 9 0,0
21.03.2019 06:00:00 3,0 -3,2 1,4 7,9 8,7 15 8 16 9 N 1032,3 39 0 0,0
21.03.2019 05:00:00 2,9 -3,2 1,3 8,0 8,8 10 5 16 9 NNE 1032,5 37 0 0,0
21.03.2019 04:00:00 4,1 -3,0 2,3 8,1 8,8 12 6 22 12 N 1032,0 44 0 0,0
21.03.2019 03:00:00 4,4 -2,9 3,0 8,1 8,8 15 8 21 11 N 1032,2 45 0 0,0
21.03.2019 02:00:00 4,8 -2,8 3,0 8,2 8,8 14 8 18 10 N 1032,8 42 0 0,0
21.03.2019 01:00:00 5,2 -2,4 3,4 8,2 8,8 11 6 16 9 N 1032,8 37 0 0,0
21.03.2019 00:00:00 6,0 -1,9 4,0 8,3 8,8 14 8 17 9 N 1032,9 34 0 0,0
20.03.2019 23:00:00 5,6 -1,3 4,1 8,3 8,8 13 7 18 10 N 1033,0 29 0 0,0
20.03.2019 22:00:00 7,0 -1,4 5,0 8,2 8,7 14 8 19 10 N 1032,7 33 0 0,0
20.03.2019 21:00:00 7,8 -1,7 6,4 8,2 8,8 16 8 22 12 N 1032,6 37 0 0,0
20.03.2019 20:00:00 9,0 -1,7 7,4 8,2 8,8 18 10 25 13 N 1032,8 41 0 0,0
20.03.2019 19:00:00 10,5 -1,6 9,1 8,1 8,8 19 11 32 17 N 1032,1 47 27 0,0
20.03.2019 18:00:00 12,2 -2,1 12,3 7,9 8,8 21 11 37 20 NNE 1031,4 20 60 0,0
20.03.2019 17:00:00 12,9 -1,8 14,2 7,8 8,8 23 12 34 19 NNE 1031,0 20 60 0,0
20.03.2019 16:00:00 13,6 -2,4 16,5 7,7 8,8 23 12 39 21 NE 1031,3 42 60 0,0
20.03.2019 15:00:00 13,3 -2,7 16,2 7,6 8,8 27 15 39 21 NNE 1031,5 37 60 0,0
20.03.2019 14:00:00 12,6 -3,3 16,4 7,4 8,8 25 14 41 22 NNE 1032,1 36 60 0,0
20.03.2019 13:00:00 12,0 -2,6 15,7 7,4 8,8 23 13 39 21 NNE 1032,8 38 60 0,0
20.03.2019 12:00:00 11,3 -1,2 15,1 7,4 8,8 24 13 39 21 NNE 1033,2 40 60 0,0
20.03.2019 11:00:00 10,0 0,0 13,3 7,4 8,8 21 11 32 17 NE 1033,6 20 60 0,0
20.03.2019 10:00:00 8,1 -0,4 8,2 7,5 8,8 17 9 25 14 NNE 1034,0 46 60 0,0
20.03.2019 09:00:00 6,0 -1,2 2,9 7,6 8,8 15 8 23 13 NNE 1033,7 48 60 0,0
20.03.2019 08:00:00 3,5 -1,7 -2,0 7,7 8,8 9 5 12 7 N 1033,7 20 60 0,0
20.03.2019 07:00:00 0,5 -2,4 -2,6 7,8 8,8 8 4 11 6 NNW 1033,7 36 5 0,0
20.03.2019 06:00:00 -0,4 -3,1 -2,4 7,9 8,8 8 5 12 7 NNW 1033,4 30 0 0,0
20.03.2019 05:00:00 0,9 -2,9 -2,3 8,0 8,8 10 5 16 9 NNW 1032,7 33 0 0,0
20.03.2019 04:00:00 1,4 -2,6 -2,3 8,0 8,8 7 4 13 7 NW 1032,3 36 0 0,0
20.03.2019 03:00:00 2,5 -2,2 -0,8 8,1 8,8 13 7 17 9 N 1032,5 33 0 0,0
20.03.2019 02:00:00 2,0 -2,3 -0,9 8,2 8,8 11 6 15 8 N 1032,8 36 0 0,0
20.03.2019 01:00:00 3,5 -2,3 1,8 8,2 8,8 11 6 18 10 N 1032,3 39 0 0,0
20.03.2019 00:00:00 4,8 -2,1 3,1 8,2 8,8 12 6 18 10 N 1032,3 43 0 0,0
19.03.2019 23:00:00 4,9 -2,2 3,4 8,3 8,8 13 7 17 9 N 1031,7 45 0 0,0
19.03.2019 22:00:00 5,7 -2,2 3,3 8,3 8,8 11 6 16 8 N 1030,9 43 0 0,0
19.03.2019 21:00:00 6,2 -1,7 4,6 8,2 8,7 13 7 15 8 N 1030,6 35 0 0,0
19.03.2019 20:00:00 7,2 -1,5 5,2 8,2 8,8 13 7 16 9 N 1030,0 42 0 0,0
19.03.2019 19:00:00 8,6 -1,3 6,9 8,0 8,8 13 7 23 12 N 1029,2 52 37 0,0
19.03.2019 18:00:00 10,3 -1,8 10,6 7,9 8,8 14 7 29 16 N 1028,4 54 47 0,0
19.03.2019 17:00:00 10,8 -1,6 12,0 7,8 8,8 17 9 29 16 NNE 1027,8 20 53 0,0
19.03.2019 16:00:00 11,0 -1,1 11,4 7,6 8,8 21 11 29 16 N 1027,7 55 48 0,0
19.03.2019 15:00:00 11,1 -1,3 11,9 7,5 8,8 16 9 26 14 N 1027,6 20 50 0,0
19.03.2019 14:00:00 10,2 -0,9 13,8 7,4 8,8 13 7 28 15 N 1027,8 19 54 0,0
19.03.2019 13:00:00 9,8 -0,1 10,4 7,4 8,8 19 10 32 18 NE 1028,0 20 54 0,0
19.03.2019 12:00:00 8,2 1,1 10,6 7,3 8,8 15 8 28 15 NNE 1028,2 20 42 0,0
19.03.2019 11:00:00 7,7 3,0 11,4 7,4 8,8 17 9 26 14 NNE 1028,3 19 60 0,0
19.03.2019 10:00:00 6,3 2,4 6,2 7,4 8,8 17 9 26 14 N 1028,1 19 60 0,0
19.03.2019 09:00:00 4,8 2,2 0,6 7,5 8,7 13 7 18 10 N 1028,0 27 60 0,0
19.03.2019 08:00:00 1,0 0,6 -2,2 7,6 8,8 6 3 8 5 N 1028,0 9 38 0,0
19.03.2019 07:00:00 -0,4 -0,5 -3,0 7,7 8,8 3 2 7 4 N 1027,4 3,6 0 0,0
19.03.2019 06:00:00 -0,7 -1,0 -2,3 7,8 8,8 4 2 9 5 E 1027,0 3,3 0 0,0
19.03.2019 05:00:00 0,6 -0,7 -0,3 7,8 8,7 7 4 11 6 NNE 1026,3 11 0 0,0
19.03.2019 04:00:00 2,0 1,1 -0,2 7,9 8,8 9 5 13 7 NNE 1025,5 15 0 0,0
19.03.2019 03:00:00 2,3 1,3 1,0 7,9 8,7 8 4 13 7 NNW 1025,6 20 0 0,0
19.03.2019 02:00:00 2,3 0,8 1,6 8,0 8,8 9 5 14 8 NNW 1025,7 20 0 0,0
19.03.2019 01:00:00 3,1 1,9 2,1 8,0 8,8 9 5 16 9 NNW 1025,2 20 0 0,0
19.03.2019 00:00:00 4,1 2,4 1,3 8,1 8,7 11 6 18 10 NW 1025,4 20 0 0,0
18.03.2019 23:00:00 2,3 1,6 0,0 8,1 8,7 4 2 8 4 NNE 1025,7 11 0 0,0
18.03.2019 22:00:00 3,0 2,0 0,1 8,1 8,7 0 0 5 3 N 1025,4 20 0 0,0
18.03.2019 21:00:00 4,0 2,2 2,1 8,1 8,8 3 2 9 5 W 1025,0 20 0 0,0
18.03.2019 20:00:00 4,6 2,5 2,5 8,1 8,7 7 4 11 6 WSW 1024,7 20 0 0,0
18.03.2019 19:00:00 5,4 2,6 2,6 8,0 8,7 0 0 14 8 N 1024,0 20 0 0,0
18.03.2019 18:00:00 6,8 2,9 6,0 8,0 8,7 13 7 26 14 ENE 1023,3 20 10 0,0
18.03.2019 17:00:00 8,2 2,6 5,9 8,0 8,7 0 0 10 6 N 1022,8 20 26 0,0
18.03.2019 16:00:00 5,8 3,5 5,1 7,9 8,7 5 3 39 21 WNW 1023,3 9 0 0,2
18.03.2019 15:00:00 8,4 0,1 8,6 7,9 8,7 7 4 18 10 NW 1022,9 20 0 0,0
18.03.2019 14:00:00 9,0 1,2 10,0 7,8 8,7 9 5 21 11 WNW 1022,9 20 6 0,0
18.03.2019 13:00:00 7,8 2,0 8,3 7,8 8,7 4 2 18 10 WNW 1023,4 20 0 0,0
18.03.2019 12:00:00 7,2 2,3 7,9 7,9 8,7 13 7 24 13 WNW 1023,6 20 3 0,0
18.03.2019 11:00:00 6,6 2,7 5,5 7,9 8,7 9 5 20 11 W 1023,5 50 2 0,2
18.03.2019 10:00:00 5,0 2,9 4,7 7,9 8,7 13 7 21 11 SSW 1023,5 15 0 0,0
18.03.2019 09:00:00 4,3 2,3 4,1 8,0 8,7 13 7 17 9 S 1022,8 20 0 0,0
18.03.2019 08:00:00 3,8 2,5 2,8 8,1 8,7 11 6 20 11 SSW 1022,2 27 0 0,0
18.03.2019 07:00:00 3,7 2,4 3,1 8,1 8,7 9 5 13 7 S 1021,7 45 0 0,0
18.03.2019 06:00:00 3,7 2,2 2,8 8,2 8,7 8 4 16 9 SW 1021,2 60 0 0,0
18.03.2019 05:00:00 3,5 2,3 2,3 8,2 8,7 8 4 11 6 S 1020,6 20 0 0,0
18.03.2019 04:00:00 3,9 2,6 3,4 8,3 8,7 5 3 9 5 S 1020,1 20 0 0,0
18.03.2019 03:00:00 4,1 2,1 3,7 8,3 8,6 0 0 9 5 N 1020,1 20 0 0,0
18.03.2019 02:00:00 4,6 1,8 3,0 8,5 8,7 5 3 14 8 W 1019,7 20 0 0,0
18.03.2019 01:00:00 4,0 1,9 1,8 8,5 8,7 4 2 25 14 WNW 1019,6 60 0 0,0
18.03.2019 00:00:00 3,4 1,3 1,5 8,6 8,7 11 6 16 9 W 1019,1 60 0 0,0

tt = Température de l'air
td = dewpoint
tt 5cm = Température de l'air 5cm
tt -20cm = Température de l'air -20cm
tt -100cm = Température de l'air -100cm
ff = Vitesse du vent
fx = gusts
dd = Direction du vent
ppp = reduced air pressure
vv = visibility
sd = Ensoleillement
rr = Quantités de précipitations

stations d'obs. à proximité